Time,TemperatureF,DewpointF,PressureIn,WindDirection,WindDirectionDegrees,WindSpeedMPH,WindSpeedGustMPH,Humidity,HourlyPrecipIn,Conditions,Clouds,dailyrainin,SoftwareType,DateUTC
2013-03-28 00:00:00,20.8,14.4,30.31,West,267,0.0,0.0,76,0.00,,---,0.19,VWS V14.00,2013-03-28 05:00:00,
2013-03-28 00:05:00,20.6,14.6,30.31,West,267,0.0,0.0,77,0.00,,---,0.00,VWS V14.00,2013-03-28 05:05:00,
2013-03-28 00:10:00,20.4,14.6,30.31,West,267,0.0,0.0,78,0.00,,---,0.00,VWS V14.00,2013-03-28 05:10:00,
2013-03-28 00:15:00,20.3,14.6,30.31,West,267,0.0,0.0,78,0.00,,---,0.00,VWS V14.00,2013-03-28 05:15:00,
2013-03-28 00:20:00,20.2,14.4,30.31,West,267,0.0,0.0,78,0.00,,---,0.00,VWS V14.00,2013-03-28 05:20:00,
2013-03-28 00:25:00,20.1,14.4,30.31,West,267,0.0,0.0,78,0.00,,---,0.00,VWS V14.00,2013-03-28 05:25:00,
2013-03-28 00:30:00,20.0,14.3,30.31,West,267,0.0,0.0,78,0.00,,---,0.00,VWS V14.00,2013-03-28 05:30:00,
2013-03-28 00:35:00,19.8,14.1,30.31,West,267,0.0,0.0,78,0.00,,---,0.00,VWS V14.00,2013-03-28 05:35:00,
2013-03-28 00:40:00,19.7,14.3,30.31,West,267,0.0,0.0,79,0.00,,---,0.00,VWS V14.00,2013-03-28 05:40:00,
2013-03-28 00:45:00,19.5,14.1,30.30,West,267,0.0,0.0,79,0.00,,---,0.00,VWS V14.00,2013-03-28 05:45:00,
2013-03-28 00:50:00,19.2,14.1,30.31,West,267,0.0,0.0,80,0.00,,---,0.00,VWS V14.00,2013-03-28 05:50:00,
2013-03-28 00:55:00,19.0,14.1,30.31,West,267,0.0,0.0,81,0.00,,---,0.00,VWS V14.00,2013-03-28 05:55:00,
2013-03-28 01:00:00,18.7,13.9,30.31,West,267,0.0,0.0,81,0.00,,---,0.00,VWS V14.00,2013-03-28 06:00:00,
2013-03-28 01:05:00,18.5,13.9,30.30,West,267,0.0,0.0,82,0.00,,---,0.00,VWS V14.00,2013-03-28 06:05:00,
2013-03-28 01:10:00,18.3,13.7,30.31,West,267,0.0,0.0,82,0.00,,---,0.00,VWS V14.00,2013-03-28 06:10:00,
2013-03-28 01:15:00,18.0,13.4,30.31,West,267,0.0,0.0,82,0.00,,---,0.00,VWS V14.00,2013-03-28 06:15:00,
2013-03-28 01:20:00,17.8,13.5,30.31,West,267,0.0,0.0,83,0.00,,---,0.00,VWS V14.00,2013-03-28 06:20:00,
2013-03-28 01:25:00,17.6,13.3,30.31,West,267,0.0,0.0,83,0.00,,---,0.00,VWS V14.00,2013-03-28 06:25:00,
2013-03-28 01:30:00,17.4,13.4,30.31,West,267,0.0,0.0,84,0.00,,---,0.00,VWS V14.00,2013-03-28 06:30:00,
2013-03-28 01:35:00,17.4,13.7,30.31,West,267,0.0,0.0,85,0.00,,---,0.00,VWS V14.00,2013-03-28 06:35:00,
2013-03-28 01:40:00,17.3,13.6,30.31,West,267,0.0,0.0,85,0.00,,---,0.00,VWS V14.00,2013-03-28 06:40:00,
2013-03-28 01:45:00,17.3,13.3,30.31,West,267,0.0,0.0,84,0.00,,---,0.00,VWS V14.00,2013-03-28 06:45:00,
2013-03-28 01:50:00,17.2,13.5,30.31,West,267,0.0,0.0,85,0.00,,---,0.00,VWS V14.00,2013-03-28 06:50:00,
2013-03-28 01:55:00,17.1,13.4,30.31,West,267,0.0,0.0,85,0.00,,---,0.00,VWS V14.00,2013-03-28 06:55:00,
2013-03-28 02:00:00,17.0,13.3,30.31,West,267,0.0,0.0,85,0.00,,---,0.00,VWS V14.00,2013-03-28 07:00:00,
2013-03-28 02:05:00,16.8,13.1,30.31,West,267,0.0,0.0,85,0.00,,---,0.00,VWS V14.00,2013-03-28 07:05:00,
2013-03-28 02:10:00,16.7,13.2,30.31,West,267,0.0,0.0,86,0.00,,---,0.00,VWS V14.00,2013-03-28 07:10:00,
2013-03-28 02:15:00,16.6,13.1,30.31,West,267,0.0,0.0,86,0.00,,---,0.00,VWS V14.00,2013-03-28 07:15:00,
2013-03-28 02:20:00,16.6,13.1,30.31,West,267,0.0,0.0,86,0.00,,---,0.00,VWS V14.00,2013-03-28 07:20:00,
2013-03-28 02:25:00,16.4,12.9,30.31,West,267,0.0,0.0,86,0.00,,---,0.00,VWS V14.00,2013-03-28 07:25:00,
2013-03-28 02:30:00,16.3,12.9,30.31,West,267,0.0,0.0,86,0.00,,---,0.00,VWS V14.00,2013-03-28 07:30:00,
2013-03-28 02:35:00,16.2,12.8,30.31,West,267,0.0,0.0,86,0.00,,---,0.00,VWS V14.00,2013-03-28 07:35:00,
2013-03-28 02:40:00,16.1,12.7,30.31,West,267,0.0,0.0,86,0.00,,---,0.00,VWS V14.00,2013-03-28 07:40:00,
2013-03-28 02:45:00,16.1,12.7,30.31,West,267,0.0,0.0,86,0.00,,---,0.00,VWS V14.00,2013-03-28 07:45:00,
2013-03-28 02:50:00,15.9,12.5,30.31,West,267,0.0,0.0,86,0.00,,---,0.00,VWS V14.00,2013-03-28 07:50:00,
2013-03-28 02:55:00,15.8,12.6,30.31,West,267,0.0,0.0,87,0.00,,---,0.00,VWS V14.00,2013-03-28 07:55:00,
2013-03-28 03:00:00,15.7,12.5,30.31,West,267,0.0,0.0,87,0.00,,---,0.00,VWS V14.00,2013-03-28 08:00:00,
2013-03-28 03:05:00,15.6,12.4,30.31,West,267,0.0,0.0,87,0.00,,---,0.00,VWS V14.00,2013-03-28 08:05:00,
2013-03-28 03:10:00,15.5,12.3,30.31,West,267,0.0,0.0,87,0.00,,---,0.00,VWS V14.00,2013-03-28 08:10:00,
2013-03-28 03:15:00,15.3,12.1,30.31,West,267,0.0,0.0,87,0.00,,---,0.00,VWS V14.00,2013-03-28 08:15:00,
2013-03-28 03:20:00,15.2,12.0,30.31,West,267,0.0,0.0,87,0.00,,---,0.00,VWS V14.00,2013-03-28 08:20:00,
2013-03-28 03:25:00,15.1,11.9,30.31,West,267,0.0,0.0,87,0.00,,---,0.00,VWS V14.00,2013-03-28 08:25:00,
2013-03-28 03:30:00,15.0,11.8,30.31,West,267,0.0,0.0,87,0.00,,---,0.00,VWS V14.00,2013-03-28 08:30:00,
2013-03-28 03:35:00,14.9,11.7,30.31,West,267,0.0,0.0,87,0.00,,---,0.00,VWS V14.00,2013-03-28 08:35:00,
2013-03-28 03:40:00,14.8,11.9,30.31,West,267,0.0,0.0,88,0.00,,---,0.00,VWS V14.00,2013-03-28 08:40:00,
2013-03-28 03:45:00,14.6,11.7,30.31,West,267,0.0,0.0,88,0.00,,---,0.00,VWS V14.00,2013-03-28 08:45:00,
2013-03-28 03:50:00,14.5,11.6,30.31,West,267,0.0,0.0,88,0.00,,---,0.00,VWS V14.00,2013-03-28 08:50:00,
2013-03-28 03:55:00,14.3,11.1,30.32,West,267,0.0,0.0,87,0.00,,---,0.00,VWS V14.00,2013-03-28 08:55:00,
2013-03-28 04:00:00,14.2,11.3,30.32,West,267,0.0,0.0,88,0.00,,---,0.00,VWS V14.00,2013-03-28 09:00:00,
2013-03-28 04:05:00,14.1,11.2,30.32,West,267,0.0,0.0,88,0.00,,---,0.00,VWS V14.00,2013-03-28 09:05:00,
2013-03-28 04:10:00,14.0,11.1,30.32,West,267,0.0,0.0,88,0.00,,---,0.00,VWS V14.00,2013-03-28 09:10:00,
2013-03-28 04:15:00,14.0,11.1,30.31,West,267,0.0,0.0,88,0.00,,---,0.00,VWS V14.00,2013-03-28 09:15:00,
2013-03-28 04:20:00,13.9,11.0,30.32,West,267,0.0,0.0,88,0.00,,---,0.00,VWS V14.00,2013-03-28 09:20:00,
2013-03-28 04:25:00,13.7,10.8,30.32,West,267,0.0,0.0,88,0.00,,---,0.00,VWS V14.00,2013-03-28 09:25:00,
2013-03-28 04:30:00,13.7,10.8,30.32,West,267,0.0,0.0,88,0.00,,---,0.00,VWS V14.00,2013-03-28 09:30:00,
2013-03-28 04:35:00,13.5,10.6,30.32,West,267,0.0,0.0,88,0.00,,---,0.00,VWS V14.00,2013-03-28 09:35:00,
2013-03-28 04:40:00,13.4,10.5,30.32,West,267,0.0,0.0,88,0.00,,---,0.00,VWS V14.00,2013-03-28 09:40:00,
2013-03-28 04:45:00,13.2,10.3,30.32,West,267,0.0,0.0,88,0.00,,---,0.00,VWS V14.00,2013-03-28 09:45:00,
2013-03-28 04:50:00,12.9,10.0,30.32,West,267,0.0,0.0,88,0.00,,---,0.00,VWS V14.00,2013-03-28 09:50:00,
2013-03-28 04:55:00,12.8,9.9,30.31,West,267,0.0,0.0,88,0.00,,---,0.00,VWS V14.00,2013-03-28 09:55:00,
2013-03-28 05:00:00,12.7,10.1,30.32,West,267,0.0,0.0,89,0.00,,---,0.00,VWS V14.00,2013-03-28 10:00:00,
2013-03-28 05:05:00,12.6,10.0,30.32,West,267,0.0,0.0,89,0.00,,---,0.00,VWS V14.00,2013-03-28 10:05:00,
2013-03-28 05:10:00,12.5,9.9,30.32,West,267,0.0,0.0,89,0.00,,---,0.00,VWS V14.00,2013-03-28 10:10:00,
2013-03-28 05:15:00,12.4,9.8,30.32,West,267,0.0,0.0,89,0.00,,---,0.00,VWS V14.00,2013-03-28 10:15:00,
2013-03-28 05:20:00,12.3,9.7,30.32,West,267,0.0,0.0,89,0.00,,---,0.00,VWS V14.00,2013-03-28 10:20:00,
2013-03-28 05:25:00,12.1,9.5,30.33,West,267,0.0,0.0,89,0.00,,---,0.00,VWS V14.00,2013-03-28 10:25:00,
2013-03-28 05:30:00,12.1,9.7,30.33,West,267,0.0,0.0,90,0.00,,---,0.00,VWS V14.00,2013-03-28 10:30:00,
2013-03-28 05:35:00,12.1,9.7,30.33,West,267,0.0,0.0,90,0.00,,---,0.00,VWS V14.00,2013-03-28 10:35:00,
2013-03-28 05:40:00,12.1,9.7,30.33,West,267,0.0,0.0,90,0.00,,---,0.00,VWS V14.00,2013-03-28 10:40:00,
2013-03-28 05:45:00,12.0,9.6,30.33,West,267,0.0,0.0,90,0.00,,---,0.00,VWS V14.00,2013-03-28 10:45:00,
2013-03-28 05:50:00,12.0,9.6,30.33,West,267,0.0,0.0,90,0.00,,---,0.00,VWS V14.00,2013-03-28 10:50:00,
2013-03-28 05:55:00,11.9,9.5,30.33,West,267,0.0,0.0,90,0.00,,---,0.00,VWS V14.00,2013-03-28 10:55:00,
2013-03-28 06:00:00,11.7,9.3,30.33,West,267,0.0,0.0,90,0.00,,---,0.00,VWS V14.00,2013-03-28 11:00:00,
2013-03-28 06:05:00,11.6,9.2,30.33,West,267,0.0,0.0,90,0.00,,---,0.00,VWS V14.00,2013-03-28 11:05:00,
2013-03-28 06:10:00,11.5,9.1,30.33,West,267,0.0,0.0,90,0.00,,---,0.00,VWS V14.00,2013-03-28 11:10:00,
2013-03-28 06:15:00,11.4,9.0,30.33,West,267,0.0,0.0,90,0.00,,---,0.00,VWS V14.00,2013-03-28 11:15:00,
2013-03-28 06:20:00,11.3,8.9,30.33,West,267,0.0,0.0,90,0.00,,---,0.00,VWS V14.00,2013-03-28 11:20:00,
2013-03-28 06:25:00,11.2,8.9,30.33,West,267,0.0,0.0,90,0.00,,---,0.00,VWS V14.00,2013-03-28 11:25:00,
2013-03-28 06:30:00,11.1,8.8,30.33,West,267,0.0,0.0,90,0.00,,---,0.00,VWS V14.00,2013-03-28 11:30:00,
2013-03-28 06:35:00,11.0,8.6,30.33,West,267,0.0,0.0,90,0.00,,---,0.00,VWS V14.00,2013-03-28 11:35:00,
2013-03-28 06:40:00,10.9,8.6,30.34,West,267,0.0,0.0,90,0.00,,---,0.00,VWS V14.00,2013-03-28 11:40:00,
2013-03-28 06:45:00,10.8,8.4,30.33,West,267,0.0,0.0,90,0.00,,---,0.00,VWS V14.00,2013-03-28 11:45:00,
2013-03-28 06:50:00,10.7,8.4,30.33,West,267,0.0,0.0,90,0.00,,---,0.00,VWS V14.00,2013-03-28 11:50:00,
2013-03-28 06:55:00,10.6,8.2,30.33,West,267,0.0,0.0,90,0.00,,---,0.00,VWS V14.00,2013-03-28 11:55:00,
2013-03-28 07:00:00,10.5,8.1,30.34,West,267,0.0,0.0,90,0.00,,---,0.00,VWS V14.00,2013-03-28 12:00:00,
2013-03-28 07:05:00,10.4,8.1,30.33,West,267,0.0,0.0,90,0.00,,---,0.00,VWS V14.00,2013-03-28 12:05:00,
2013-03-28 07:10:00,10.3,8.0,30.34,West,267,0.0,0.0,90,0.00,,---,0.00,VWS V14.00,2013-03-28 12:10:00,
2013-03-28 07:15:00,10.3,8.0,30.34,West,267,0.0,0.0,90,0.00,,---,0.00,VWS V14.00,2013-03-28 12:15:00,
2013-03-28 07:20:00,10.3,8.0,30.34,West,267,0.0,0.0,90,0.00,,---,0.00,VWS V14.00,2013-03-28 12:20:00,
2013-03-28 07:25:00,10.4,8.3,30.34,West,267,0.0,0.0,91,0.00,,---,0.00,VWS V14.00,2013-03-28 12:25:00,
2013-03-28 07:30:00,10.5,8.4,30.34,West,267,0.0,0.0,91,0.00,,---,0.00,VWS V14.00,2013-03-28 12:30:00,
2013-03-28 07:35:00,10.7,8.6,30.34,West,267,0.0,0.0,91,0.00,,---,0.00,VWS V14.00,2013-03-28 12:35:00,
2013-03-28 07:40:00,10.9,8.8,30.34,West,267,0.0,0.0,91,0.00,,---,0.00,VWS V14.00,2013-03-28 12:40:00,
2013-03-28 07:45:00,11.2,8.9,30.35,West,267,0.0,0.0,90,0.00,,---,0.00,VWS V14.00,2013-03-28 12:45:00,
2013-03-28 07:50:00,11.4,9.0,30.34,West,267,0.0,0.0,90,0.00,,---,0.00,VWS V14.00,2013-03-28 12:50:00,
2013-03-28 07:55:00,11.7,9.3,30.34,West,267,0.0,0.0,90,0.00,,---,0.00,VWS V14.00,2013-03-28 12:55:00,
2013-03-28 08:00:00,12.0,9.6,30.35,West,267,0.0,0.0,90,0.00,,---,0.00,VWS V14.00,2013-03-28 13:00:00,
2013-03-28 08:05:00,12.4,10.0,30.35,West,267,0.0,0.0,90,0.00,,---,0.00,VWS V14.00,2013-03-28 13:05:00,
2013-03-28 08:10:00,13.0,10.9,30.35,West,267,0.0,0.0,91,0.00,,---,0.00,VWS V14.00,2013-03-28 13:10:00,
2013-03-28 08:15:00,13.7,11.6,30.35,West,267,0.0,0.0,91,0.00,,---,0.00,VWS V14.00,2013-03-28 13:15:00,
2013-03-28 08:20:00,14.4,12.3,30.35,West,267,0.0,0.0,91,0.00,,---,0.00,VWS V14.00,2013-03-28 13:20:00,
2013-03-28 08:25:00,15.0,12.6,30.35,West,267,0.0,0.0,90,0.00,,---,0.00,VWS V14.00,2013-03-28 13:25:00,
2013-03-28 08:30:00,15.5,13.1,30.35,West,267,0.0,0.0,90,0.00,,---,0.00,VWS V14.00,2013-03-28 13:30:00,
2013-03-28 08:35:00,16.0,13.3,30.35,West,267,0.0,0.0,89,0.00,,---,0.00,VWS V14.00,2013-03-28 13:35:00,
2013-03-28 08:40:00,16.5,13.8,30.35,West,267,0.0,0.0,89,0.00,,---,0.00,VWS V14.00,2013-03-28 13:40:00,
2013-03-28 08:45:00,17.0,14.1,30.35,West,267,0.0,0.0,88,0.00,,---,0.00,VWS V14.00,2013-03-28 13:45:00,
2013-03-28 08:50:00,17.6,14.7,30.35,West,267,0.0,0.0,88,0.00,,---,0.00,VWS V14.00,2013-03-28 13:50:00,
2013-03-28 08:55:00,18.4,15.4,30.35,West,267,0.0,0.0,88,0.00,,---,0.00,VWS V14.00,2013-03-28 13:55:00,
2013-03-28 09:00:00,19.6,16.6,30.35,West,267,0.0,1.0,88,0.00,,---,0.00,VWS V14.00,2013-03-28 14:00:00,
2013-03-28 09:05:00,21.2,17.7,30.35,West,267,0.0,0.0,86,0.00,,---,0.00,VWS V14.00,2013-03-28 14:05:00,
2013-03-28 09:10:00,22.7,18.3,30.35,West,267,0.0,0.0,83,0.00,,---,0.00,VWS V14.00,2013-03-28 14:10:00,
2013-03-28 09:15:00,24.5,18.9,30.35,West,260,0.0,4.0,79,0.00,,---,0.00,VWS V14.00,2013-03-28 14:15:00,
2013-03-28 09:20:00,26.2,19.4,30.35,West,274,1.0,3.0,75,0.00,,---,0.00,VWS V14.00,2013-03-28 14:20:00,
2013-03-28 09:25:00,27.6,19.8,30.35,WSW,253,2.0,3.0,72,0.00,,---,0.00,VWS V14.00,2013-03-28 14:25:00,
2013-03-28 09:30:00,28.8,19.9,30.35,SW,223,2.0,4.0,69,0.00,,---,0.00,VWS V14.00,2013-03-28 14:30:00,
2013-03-28 09:35:00,29.9,20.3,30.35,WSW,240,0.0,4.0,67,0.00,,---,0.00,VWS V14.00,2013-03-28 14:35:00,
2013-03-28 09:40:00,30.9,20.5,30.35,WSW,249,1.0,4.0,65,0.00,,---,0.00,VWS V14.00,2013-03-28 14:40:00,
2013-03-28 09:45:00,31.7,20.2,30.34,SW,236,3.0,5.0,62,0.00,,---,0.00,VWS V14.00,2013-03-28 14:45:00,
2013-03-28 09:50:00,32.5,19.8,30.35,SW,216,1.0,7.0,59,0.00,,---,0.00,VWS V14.00,2013-03-28 14:50:00,
2013-03-28 09:55:00,33.0,19.9,30.35,West,262,0.0,7.0,58,0.00,,---,0.00,VWS V14.00,2013-03-28 14:55:00,
2013-03-28 10:00:00,33.5,19.9,30.34,WSW,239,2.0,7.0,57,0.00,,---,0.00,VWS V14.00,2013-03-28 15:00:00,
2013-03-28 10:05:00,33.8,19.4,30.34,SW,232,2.0,5.0,55,0.00,,---,0.00,VWS V14.00,2013-03-28 15:05:00,
2013-03-28 10:10:00,34.1,19.6,30.34,SW,234,0.0,8.0,55,0.00,,---,0.00,VWS V14.00,2013-03-28 15:10:00,
2013-03-28 10:15:00,34.4,19.0,30.35,SW,230,2.0,8.0,53,0.00,,---,0.00,VWS V14.00,2013-03-28 15:15:00,
2013-03-28 10:20:00,34.6,19.7,30.34,SW,232,0.0,4.0,54,0.00,,---,0.00,VWS V14.00,2013-03-28 15:20:00,
2013-03-28 10:25:00,35.0,19.6,30.35,West,272,3.0,5.0,53,0.00,,---,0.00,VWS V14.00,2013-03-28 15:25:00,
2013-03-28 10:30:00,35.2,19.4,30.34,SSW,213,3.0,5.0,52,0.00,,---,0.00,VWS V14.00,2013-03-28 15:30:00,
2013-03-28 10:35:00,35.5,19.2,30.34,SW,219,3.0,7.0,51,0.00,,---,0.00,VWS V14.00,2013-03-28 15:35:00,
2013-03-28 10:40:00,35.7,19.8,30.34,SSE,155,6.0,7.0,52,0.00,,---,0.00,VWS V14.00,2013-03-28 15:40:00,
2013-03-28 10:45:00,35.7,19.8,30.34,SW,235,1.0,7.0,52,0.00,,---,0.00,VWS V14.00,2013-03-28 15:45:00,
2013-03-28 10:50:00,35.9,19.5,30.34,South,171,1.0,6.0,51,0.00,,---,0.00,VWS V14.00,2013-03-28 15:50:00,
2013-03-28 10:55:00,36.2,19.8,30.34,South,191,1.0,9.0,51,0.00,,---,0.00,VWS V14.00,2013-03-28 15:55:00,
2013-03-28 11:00:00,36.5,20.1,30.34,SW,232,2.0,9.0,51,0.00,,---,0.00,VWS V14.00,2013-03-28 16:00:00,
2013-03-28 11:05:00,37.0,19.6,30.34,WNW,299,3.0,7.0,49,0.00,,---,0.00,VWS V14.00,2013-03-28 16:05:00,
2013-03-28 11:10:00,37.4,19.5,30.34,SSW,198,4.0,7.0,48,0.00,,---,0.00,VWS V14.00,2013-03-28 16:10:00,
2013-03-28 11:15:00,37.8,19.4,30.34,NNE,19,2.0,7.0,47,0.00,,---,0.00,VWS V14.00,2013-03-28 16:15:00,
2013-03-28 11:20:00,38.2,19.8,30.34,WSW,251,3.0,9.0,47,0.00,,---,0.00,VWS V14.00,2013-03-28 16:20:00,
2013-03-28 11:25:00,38.3,20.4,30.34,NW,315,1.0,9.0,48,0.00,,---,0.00,VWS V14.00,2013-03-28 16:25:00,
2013-03-28 11:30:00,38.7,20.2,30.33,WSW,238,0.0,9.0,47,0.00,,---,0.00,VWS V14.00,2013-03-28 16:30:00,
2013-03-28 11:35:00,38.9,20.4,30.34,NNW,329,0.0,9.0,47,0.00,,---,0.00,VWS V14.00,2013-03-28 16:35:00,
2013-03-28 11:40:00,39.4,21.4,30.34,WSW,254,2.0,9.0,48,0.00,,---,0.00,VWS V14.00,2013-03-28 16:40:00,
2013-03-28 11:45:00,39.8,20.2,30.33,NW,322,0.0,9.0,45,0.00,,---,0.00,VWS V14.00,2013-03-28 16:45:00,
2013-03-28 11:50:00,40.3,20.7,30.33,WSW,239,3.0,5.0,45,0.00,,---,0.00,VWS V14.00,2013-03-28 16:50:00,
2013-03-28 11:55:00,40.6,20.9,30.33,NNW,340,0.0,5.0,45,0.00,,---,0.00,VWS V14.00,2013-03-28 16:55:00,
2013-03-28 12:00:00,40.9,21.2,30.33,West,263,4.0,6.0,45,0.00,,---,0.00,VWS V14.00,2013-03-28 17:00:00,
2013-03-28 12:05:00,40.9,19.6,30.33,WSW,248,4.0,4.0,42,0.00,,---,0.00,VWS V14.00,2013-03-28 17:05:00,
2013-03-28 12:10:00,41.1,20.3,30.33,WNW,292,1.0,5.0,43,0.00,,---,0.00,VWS V14.00,2013-03-28 17:10:00,
2013-03-28 12:15:00,41.1,19.8,30.33,SW,229,4.0,5.0,42,0.00,,---,0.00,VWS V14.00,2013-03-28 17:15:00,
2013-03-28 12:20:00,41.1,20.9,30.33,WNW,284,0.0,4.0,44,0.00,,---,0.00,VWS V14.00,2013-03-28 17:20:00,
2013-03-28 12:25:00,41.2,19.9,30.33,NNW,338,1.0,4.0,42,0.00,,---,0.00,VWS V14.00,2013-03-28 17:25:00,
2013-03-28 12:30:00,41.3,20.0,30.33,SSW,195,5.0,6.0,42,0.00,,---,0.01,VWS V14.00,2013-03-28 17:30:00,
2013-03-28 12:35:00,40.7,20.5,30.33,SW,227,2.0,7.0,44,0.00,,---,0.01,VWS V14.00,2013-03-28 17:35:00,
2013-03-28 12:40:00,40.3,19.6,30.33,WNW,303,3.0,7.0,43,0.00,,---,0.01,VWS V14.00,2013-03-28 17:40:00,
2013-03-28 12:45:00,40.7,20.0,30.33,WSW,238,2.0,7.0,43,0.00,,---,0.01,VWS V14.00,2013-03-28 17:45:00,
2013-03-28 12:50:00,41.4,21.7,30.33,SW,236,4.0,5.0,45,0.00,,---,0.01,VWS V14.00,2013-03-28 17:50:00,
2013-03-28 12:55:00,41.6,20.8,30.33,WSW,258,0.0,5.0,43,0.00,,---,0.01,VWS V14.00,2013-03-28 17:55:00,
2013-03-28 13:00:00,41.9,19.9,30.32,NNE,32,3.0,6.0,41,0.00,,---,0.01,VWS V14.00,2013-03-28 18:00:00,
2013-03-28 13:05:00,41.6,21.9,30.32,ENE,62,0.0,2.0,45,0.00,,---,0.02,VWS V14.00,2013-03-28 18:05:00,
2013-03-28 13:10:00,41.7,20.9,30.32,WNW,302,5.0,7.0,43,0.00,,---,0.02,VWS V14.00,2013-03-28 18:10:00,
2013-03-28 13:15:00,42.0,21.1,30.32,NE,52,4.0,7.0,43,0.00,,---,0.02,VWS V14.00,2013-03-28 18:15:00,
2013-03-28 13:20:00,42.1,20.7,30.31,NE,46,3.0,5.0,42,0.00,,---,0.02,VWS V14.00,2013-03-28 18:20:00,
2013-03-28 13:25:00,42.0,20.0,30.31,NE,35,2.0,7.0,41,0.00,,---,0.02,VWS V14.00,2013-03-28 18:25:00,
2013-03-28 13:30:00,42.2,21.3,30.32,SW,231,6.0,7.0,43,0.00,,---,0.02,VWS V14.00,2013-03-28 18:30:00,
2013-03-28 13:35:00,42.7,21.2,30.32,North,5,0.0,2.0,42,0.00,,---,0.02,VWS V14.00,2013-03-28 18:35:00,
2013-03-28 13:40:00,42.5,20.5,30.32,WSW,237,4.0,7.0,41,0.00,,---,0.03,VWS V14.00,2013-03-28 18:40:00,
2013-03-28 13:45:00,42.2,19.6,30.32,NE,52,0.0,7.0,40,0.00,,---,0.03,VWS V14.00,2013-03-28 18:45:00,
2013-03-28 13:50:00,42.3,19.7,30.31,NNE,24,0.0,6.0,40,0.00,,---,0.03,VWS V14.00,2013-03-28 18:50:00,
2013-03-28 13:55:00,42.7,21.8,30.31,NW,309,0.0,6.0,43,0.00,,---,0.03,VWS V14.00,2013-03-28 18:55:00,
2013-03-28 14:00:00,43.3,20.6,30.31,West,273,3.0,6.0,40,0.00,,---,0.03,VWS V14.00,2013-03-28 19:00:00,
2013-03-28 14:05:00,43.0,19.8,30.31,NNE,28,2.0,6.0,39,0.00,,---,0.03,VWS V14.00,2013-03-28 19:05:00,
2013-03-28 14:10:00,42.8,20.8,30.31,SSW,194,3.0,6.0,41,0.00,,---,0.03,VWS V14.00,2013-03-28 19:10:00,
2013-03-28 14:15:00,42.9,20.3,30.31,NE,36,1.0,6.0,40,0.00,,---,0.03,VWS V14.00,2013-03-28 19:15:00,
2013-03-28 14:20:00,42.9,22.0,30.31,NE,38,2.0,4.0,43,0.00,,---,0.04,VWS V14.00,2013-03-28 19:20:00,
2013-03-28 14:25:00,42.7,19.5,30.31,ENE,67,1.0,4.0,39,0.00,,---,0.04,VWS V14.00,2013-03-28 19:25:00,
2013-03-28 14:30:00,42.9,20.8,30.30,South,169,3.0,4.0,41,0.00,,---,0.04,VWS V14.00,2013-03-28 19:30:00,
2013-03-28 14:35:00,43.2,20.5,30.30,WSW,258,5.0,5.0,40,0.00,,---,0.04,VWS V14.00,2013-03-28 19:35:00,
2013-03-28 14:40:00,43.4,20.7,30.30,WSW,247,4.0,5.0,40,0.00,,---,0.04,VWS V14.00,2013-03-28 19:40:00,
2013-03-28 14:45:00,43.3,21.2,30.30,WSW,249,0.0,5.0,41,0.00,,---,0.04,VWS V14.00,2013-03-28 19:45:00,
2013-03-28 14:50:00,43.6,20.9,30.30,North,360,3.0,4.0,40,0.00,,---,0.04,VWS V14.00,2013-03-28 19:50:00,
2013-03-28 14:55:00,43.7,19.8,30.30,NNE,16,0.0,5.0,38,0.00,,---,0.04,VWS V14.00,2013-03-28 19:55:00,
2013-03-28 15:00:00,43.6,20.9,30.29,WSW,257,2.0,6.0,40,0.00,,---,0.05,VWS V14.00,2013-03-28 20:00:00,
2013-03-28 15:05:00,43.4,21.9,30.29,WSW,241,2.0,5.0,42,0.00,,---,0.05,VWS V14.00,2013-03-28 20:05:00,
2013-03-28 15:10:00,43.4,20.7,30.29,WNW,303,0.0,6.0,40,0.00,,---,0.05,VWS V14.00,2013-03-28 20:10:00,
2013-03-28 15:15:00,43.4,20.1,30.29,South,171,2.0,6.0,39,0.00,,---,0.05,VWS V14.00,2013-03-28 20:15:00,
2013-03-28 15:20:00,43.6,22.0,30.29,WSW,240,5.0,6.0,42,0.00,,---,0.05,VWS V14.00,2013-03-28 20:20:00,
2013-03-28 15:25:00,43.6,20.9,30.29,NE,38,2.0,6.0,40,0.00,,---,0.05,VWS V14.00,2013-03-28 20:25:00,
2013-03-28 15:30:00,43.5,22.0,30.29,SW,234,0.0,6.0,42,0.00,,---,0.05,VWS V14.00,2013-03-28 20:30:00,
2013-03-28 15:35:00,43.6,20.9,30.29,ENE,59,0.0,3.0,40,0.00,,---,0.05,VWS V14.00,2013-03-28 20:35:00,
2013-03-28 15:40:00,43.5,20.8,30.29,NNE,33,2.0,7.0,40,0.00,,---,0.05,VWS V14.00,2013-03-28 20:40:00,
2013-03-28 15:45:00,43.4,20.1,30.28,WSW,246,3.0,7.0,39,0.00,,---,0.05,VWS V14.00,2013-03-28 20:45:00,
2013-03-28 15:50:00,43.4,21.3,30.28,West,274,0.0,2.0,41,0.00,,---,0.06,VWS V14.00,2013-03-28 20:50:00,
2013-03-28 15:55:00,43.7,21.6,30.28,NNW,348,0.0,3.0,41,0.00,,---,0.06,VWS V14.00,2013-03-28 20:55:00,
2013-03-28 16:00:00,44.0,22.4,30.28,SW,219,4.0,5.0,42,0.00,,---,0.06,VWS V14.00,2013-03-28 21:00:00,
2013-03-28 16:05:00,44.1,21.3,30.28,NE,55,0.0,2.0,40,0.00,,---,0.06,VWS V14.00,2013-03-28 21:05:00,
2013-03-28 16:10:00,44.5,21.1,30.28,SW,232,3.0,5.0,39,0.00,,---,0.06,VWS V14.00,2013-03-28 21:10:00,
2013-03-28 16:15:00,44.4,21.0,30.28,SW,232,2.0,5.0,39,0.00,,---,0.06,VWS V14.00,2013-03-28 21:15:00,
2013-03-28 16:20:00,44.3,20.3,30.28,South,169,3.0,6.0,38,0.00,,---,0.06,VWS V14.00,2013-03-28 21:20:00,
2013-03-28 16:25:00,43.7,21.6,30.28,SW,227,3.0,6.0,41,0.00,,---,0.06,VWS V14.00,2013-03-28 21:25:00,
2013-03-28 16:30:00,43.7,22.1,30.28,NNW,338,1.0,6.0,42,0.00,,---,0.06,VWS V14.00,2013-03-28 21:30:00,
2013-03-28 16:35:00,43.9,22.3,30.28,SW,235,7.0,7.0,42,0.00,,---,0.06,VWS V14.00,2013-03-28 21:35:00,
2013-03-28 16:40:00,43.7,21.0,30.29,SW,234,4.0,9.0,40,0.00,,---,0.06,VWS V14.00,2013-03-28 21:40:00,
2013-03-28 16:45:00,43.5,21.4,30.28,WSW,251,0.0,9.0,41,0.00,,---,0.06,VWS V14.00,2013-03-28 21:45:00,
2013-03-28 16:50:00,43.6,20.3,30.28,West,273,0.0,0.0,39,0.00,,---,0.06,VWS V14.00,2013-03-28 21:50:00,
2013-03-28 16:55:00,43.8,22.2,30.28,WSW,251,3.0,5.0,42,0.00,,---,0.07,VWS V14.00,2013-03-28 21:55:00,
2013-03-28 17:00:00,44.0,21.2,30.28,WSW,242,2.0,5.0,40,0.00,,---,0.07,VWS V14.00,2013-03-28 22:00:00,
2013-03-28 17:05:00,44.1,20.7,30.28,ESE,117,0.0,2.0,39,0.00,,---,0.07,VWS V14.00,2013-03-28 22:05:00,
2013-03-28 17:10:00,44.1,21.9,30.28,WNW,284,3.0,4.0,41,0.00,,---,0.07,VWS V14.00,2013-03-28 22:10:00,
2013-03-28 17:15:00,43.9,22.3,30.28,NW,309,0.0,4.0,42,0.00,,---,0.07,VWS V14.00,2013-03-28 22:15:00,
2013-03-28 17:20:00,43.7,21.6,30.28,NNE,16,2.0,2.0,41,0.00,,---,0.07,VWS V14.00,2013-03-28 22:20:00,
2013-03-28 17:25:00,43.5,22.0,30.28,ENE,70,1.0,4.0,42,0.00,,---,0.07,VWS V14.00,2013-03-28 22:25:00,
2013-03-28 17:30:00,43.1,22.1,30.28,West,264,2.0,4.0,43,0.00,,---,0.07,VWS V14.00,2013-03-28 22:30:00,
2013-03-28 17:35:00,42.7,21.2,30.28,NNW,338,0.0,3.0,42,0.00,,---,0.07,VWS V14.00,2013-03-28 22:35:00,
2013-03-28 17:40:00,42.3,22.0,30.28,SW,235,2.0,3.0,44,0.00,,---,0.07,VWS V14.00,2013-03-28 22:40:00,
2013-03-28 17:45:00,42.0,21.7,30.28,WNW,295,0.0,3.0,44,0.00,,---,0.07,VWS V14.00,2013-03-28 22:45:00,
2013-03-28 17:50:00,41.8,21.5,30.28,WSW,246,0.0,2.0,44,0.00,,---,0.07,VWS V14.00,2013-03-28 22:50:00,
2013-03-28 17:55:00,41.6,21.9,30.29,NE,38,3.0,5.0,45,0.00,,---,0.07,VWS V14.00,2013-03-28 22:55:00,
2013-03-28 18:00:00,41.4,21.1,30.29,NW,313,0.0,5.0,44,0.00,,---,0.07,VWS V14.00,2013-03-28 23:00:00,
2013-03-28 18:05:00,41.3,22.1,30.29,NW,313,0.0,0.0,46,0.00,,---,0.07,VWS V14.00,2013-03-28 23:05:00,
2013-03-28 18:10:00,41.0,21.3,30.29,WSW,249,4.0,5.0,45,0.00,,---,0.07,VWS V14.00,2013-03-28 23:10:00,
2013-03-28 18:15:00,40.8,21.6,30.29,NW,317,2.0,5.0,46,0.00,,---,0.07,VWS V14.00,2013-03-28 23:15:00,
2013-03-28 18:20:00,40.6,21.5,30.29,NNE,33,1.0,3.0,46,0.00,,---,0.07,VWS V14.00,2013-03-28 23:20:00,
2013-03-28 18:25:00,40.5,21.4,30.29,NNW,330,0.0,3.0,46,0.00,,---,0.07,VWS V14.00,2013-03-28 23:25:00,
2013-03-28 18:30:00,40.4,22.3,30.29,NNW,342,0.0,3.0,48,0.00,,---,0.07,VWS V14.00,2013-03-28 23:30:00,
2013-03-28 18:35:00,40.1,21.5,30.29,NW,323,0.0,2.0,47,0.00,,---,0.07,VWS V14.00,2013-03-28 23:35:00,
2013-03-28 18:40:00,39.8,20.7,30.29,SSW,198,0.0,2.0,46,0.00,,---,0.07,VWS V14.00,2013-03-28 23:40:00,
2013-03-28 18:45:00,39.6,21.0,30.29,SW,231,0.0,3.0,47,0.00,,---,0.07,VWS V14.00,2013-03-28 23:45:00,
2013-03-28 18:50:00,39.5,21.5,30.29,SW,231,0.0,0.0,48,0.00,,---,0.07,VWS V14.00,2013-03-28 23:50:00,
2013-03-28 18:55:00,39.2,21.7,30.29,South,187,0.0,1.0,49,0.00,,---,0.07,VWS V14.00,2013-03-28 23:55:00,
2013-03-28 19:00:00,38.9,20.9,30.29,SSW,208,0.0,1.0,48,0.00,,---,0.07,VWS V14.00,2013-03-29 00:00:00,
2013-03-28 19:05:00,38.7,21.2,30.29,SSW,208,0.0,0.0,49,0.00,,---,0.07,VWS V14.00,2013-03-29 00:05:00,
2013-03-28 19:10:00,38.4,21.4,30.30,SSW,208,0.0,0.0,50,0.00,,---,0.07,VWS V14.00,2013-03-29 00:10:00,
2013-03-28 19:15:00,38.0,21.5,30.30,SSW,208,0.0,0.0,51,0.00,,---,0.07,VWS V14.00,2013-03-29 00:15:00,
2013-03-28 19:20:00,37.6,21.6,30.30,SSW,208,0.0,0.0,52,0.00,,---,0.07,VWS V14.00,2013-03-29 00:20:00,
2013-03-28 19:25:00,37.1,20.7,30.30,SSW,208,0.0,0.0,51,0.00,,---,0.07,VWS V14.00,2013-03-29 00:25:00,
2013-03-28 19:30:00,36.7,21.2,30.30,SSW,208,0.0,0.0,53,0.00,,---,0.07,VWS V14.00,2013-03-29 00:30:00,
2013-03-28 19:35:00,36.2,20.7,30.30,SSW,208,0.0,0.0,53,0.00,,---,0.07,VWS V14.00,2013-03-29 00:35:00,
2013-03-28 19:40:00,35.9,22.6,30.30,SSW,208,0.0,0.0,58,0.00,,---,0.07,VWS V14.00,2013-03-29 00:40:00,
2013-03-28 19:45:00,35.3,22.4,30.30,SSW,208,0.0,0.0,59,0.00,,---,0.07,VWS V14.00,2013-03-29 00:45:00,
2013-03-28 19:50:00,34.8,22.3,30.30,SSW,208,0.0,0.0,60,0.00,,---,0.07,VWS V14.00,2013-03-29 00:50:00,
2013-03-28 19:55:00,34.3,21.9,30.30,SSW,208,0.0,0.0,60,0.00,,---,0.07,VWS V14.00,2013-03-29 00:55:00,
2013-03-28 20:00:00,33.8,21.4,30.30,SSW,208,0.0,0.0,60,0.00,,---,0.07,VWS V14.00,2013-03-29 01:00:00,
2013-03-28 20:05:00,33.4,21.4,30.30,SSW,208,0.0,0.0,61,0.00,,---,0.07,VWS V14.00,2013-03-29 01:05:00,
2013-03-28 20:10:00,33.0,21.8,30.30,SSW,208,0.0,0.0,63,0.00,,---,0.07,VWS V14.00,2013-03-29 01:10:00,
2013-03-28 20:15:00,32.5,19.4,30.30,SSW,208,0.0,0.0,58,0.00,,---,0.07,VWS V14.00,2013-03-29 01:15:00,
2013-03-28 20:20:00,32.2,19.5,30.30,SSW,208,0.0,0.0,59,0.00,,---,0.07,VWS V14.00,2013-03-29 01:20:00,
2013-03-28 20:25:00,31.8,19.1,30.31,SSW,208,0.0,0.0,59,0.00,,---,0.07,VWS V14.00,2013-03-29 01:25:00,
2013-03-28 20:30:00,31.4,19.5,30.31,SSW,208,0.0,0.0,61,0.00,,---,0.07,VWS V14.00,2013-03-29 01:30:00,
2013-03-28 20:35:00,31.0,19.5,30.31,SSW,208,0.0,0.0,62,0.00,,---,0.07,VWS V14.00,2013-03-29 01:35:00,
2013-03-28 20:40:00,30.6,19.9,30.31,SSW,208,0.0,0.0,64,0.00,,---,0.07,VWS V14.00,2013-03-29 01:40:00,
2013-03-28 20:45:00,30.1,18.7,30.31,SSW,208,0.0,0.0,62,0.00,,---,0.07,VWS V14.00,2013-03-29 01:45:00,
2013-03-28 20:50:00,29.6,18.9,30.31,SSW,208,0.0,0.0,64,0.00,,---,0.07,VWS V14.00,2013-03-29 01:50:00,
2013-03-28 20:55:00,29.3,19.0,30.31,SSW,208,0.0,0.0,65,0.00,,---,0.07,VWS V14.00,2013-03-29 01:55:00,
2013-03-28 21:00:00,29.0,19.1,30.31,SSW,208,0.0,0.0,66,0.00,,---,0.07,VWS V14.00,2013-03-29 02:00:00,
2013-03-28 21:05:00,28.7,18.4,30.31,SSW,208,0.0,0.0,65,0.00,,---,0.07,VWS V14.00,2013-03-29 02:05:00,
2013-03-28 21:10:00,28.4,18.5,30.32,SSW,208,0.0,0.0,66,0.00,,---,0.07,VWS V14.00,2013-03-29 02:10:00,
2013-03-28 21:15:00,28.1,18.2,30.32,SSW,208,0.0,0.0,66,0.00,,---,0.07,VWS V14.00,2013-03-29 02:15:00,
2013-03-28 21:20:00,27.8,17.9,30.32,SSW,208,0.0,0.0,66,0.00,,---,0.07,VWS V14.00,2013-03-29 02:20:00,
2013-03-28 21:25:00,27.5,18.3,30.31,SSW,208,0.0,0.0,68,0.00,,---,0.07,VWS V14.00,2013-03-29 02:25:00,
2013-03-28 21:30:00,27.2,18.4,30.32,SSW,208,0.0,0.0,69,0.00,,---,0.07,VWS V14.00,2013-03-29 02:30:00,
2013-03-28 21:35:00,27.0,18.9,30.32,SSW,208,0.0,0.0,71,0.00,,---,0.07,VWS V14.00,2013-03-29 02:35:00,
2013-03-28 21:40:00,26.8,18.7,30.32,SSW,208,0.0,0.0,71,0.00,,---,0.07,VWS V14.00,2013-03-29 02:40:00,
2013-03-28 21:45:00,26.6,19.1,30.32,SSW,208,0.0,0.0,73,0.00,,---,0.07,VWS V14.00,2013-03-29 02:45:00,
2013-03-28 21:50:00,26.5,18.7,30.32,SSW,208,0.0,0.0,72,0.00,,---,0.07,VWS V14.00,2013-03-29 02:50:00,
2013-03-28 21:55:00,26.3,19.1,30.32,SSW,208,0.0,0.0,74,0.00,,---,0.07,VWS V14.00,2013-03-29 02:55:00,
2013-03-28 22:00:00,26.2,19.1,30.32,SSW,208,0.0,0.0,74,0.00,,---,0.07,VWS V14.00,2013-03-29 03:00:00,
2013-03-28 22:05:00,26.0,18.5,30.32,SSW,208,0.0,0.0,73,0.00,,---,0.07,VWS V14.00,2013-03-29 03:05:00,
2013-03-28 22:10:00,25.9,18.5,30.32,SSW,208,0.0,0.0,73,0.00,,---,0.07,VWS V14.00,2013-03-29 03:10:00,
2013-03-28 22:15:00,25.8,18.7,30.32,SSW,208,0.0,0.0,74,0.00,,---,0.07,VWS V14.00,2013-03-29 03:15:00,
2013-03-28 22:20:00,25.7,17.9,30.31,SSW,208,0.0,0.0,72,0.00,,---,0.07,VWS V14.00,2013-03-29 03:20:00,
2013-03-28 22:25:00,25.6,17.8,30.32,SSW,208,0.0,0.0,72,0.00,,---,0.07,VWS V14.00,2013-03-29 03:25:00,
2013-03-28 22:30:00,25.5,18.4,30.31,SSW,208,0.0,0.0,74,0.00,,---,0.07,VWS V14.00,2013-03-29 03:30:00,
2013-03-28 22:35:00,25.3,17.9,30.32,SSW,208,0.0,0.0,73,0.00,,---,0.07,VWS V14.00,2013-03-29 03:35:00,
2013-03-28 22:40:00,25.1,17.4,30.32,SSW,208,0.0,0.0,72,0.00,,---,0.07,VWS V14.00,2013-03-29 03:40:00,
2013-03-28 22:45:00,24.8,17.7,30.32,SSW,208,0.0,0.0,74,0.00,,---,0.07,VWS V14.00,2013-03-29 03:45:00,
2013-03-28 22:50:00,24.6,17.5,30.32,SSW,208,0.0,0.0,74,0.00,,---,0.07,VWS V14.00,2013-03-29 03:50:00,
2013-03-28 22:55:00,24.4,17.9,30.32,SSW,208,0.0,0.0,76,0.00,,---,0.07,VWS V14.00,2013-03-29 03:55:00,
2013-03-28 23:00:00,24.3,17.8,30.31,SSW,208,0.0,0.0,76,0.00,,---,0.07,VWS V14.00,2013-03-29 04:00:00,
2013-03-28 23:05:00,24.2,17.7,30.32,SSW,208,0.0,0.0,76,0.00,,---,0.07,VWS V14.00,2013-03-29 04:05:00,
2013-03-28 23:10:00,24.2,18.0,30.32,SSW,208,0.0,0.0,77,0.00,,---,0.07,VWS V14.00,2013-03-29 04:10:00,
2013-03-28 23:15:00,24.2,18.0,30.32,SSW,208,0.0,0.0,77,0.00,,---,0.07,VWS V14.00,2013-03-29 04:15:00,
2013-03-28 23:20:00,24.2,18.0,30.31,SSW,208,0.0,0.0,77,0.00,,---,0.07,VWS V14.00,2013-03-29 04:20:00,
2013-03-28 23:25:00,24.1,17.6,30.31,SSW,208,0.0,0.0,76,0.00,,---,0.07,VWS V14.00,2013-03-29 04:25:00,
2013-03-28 23:30:00,24.1,17.6,30.31,SSW,208,0.0,0.0,76,0.00,,---,0.07,VWS V14.00,2013-03-29 04:30:00,
2013-03-28 23:35:00,24.0,17.9,30.31,SSW,208,0.0,0.0,77,0.00,,---,0.07,VWS V14.00,2013-03-29 04:35:00,
2013-03-28 23:40:00,23.8,17.4,30.32,SSW,208,0.0,0.0,76,0.00,,---,0.07,VWS V14.00,2013-03-29 04:40:00,
2013-03-28 23:45:00,23.6,17.5,30.32,SSW,208,0.0,0.0,77,0.00,,---,0.07,VWS V14.00,2013-03-29 04:45:00,
2013-03-28 23:50:00,23.5,18.0,30.31,SSW,208,0.0,0.0,79,0.00,,---,0.07,VWS V14.00,2013-03-29 04:50:00,
2013-03-28 23:55:00,23.2,17.4,30.31,SSW,208,0.0,0.0,78,0.00,,---,0.07,VWS V14.00,2013-03-29 04:55:00,